Simultaneous Nadir Overpasses (SNOs) Predictions

Prediction of SNOs between GOES-15 and METOP-C Satellite Orbit:

Table of predicted SNOs for the next 14.0 days since TLE Epoch: 1/27/2025
Index Date Time (GOES-15) GOES-15 Lat,Lon METOP-C Lat,Lon Distance(km) Time Diff (sec)
1 01/27/2025 05:23:04 0.00, 61.60 -0.18, 62.32 82.77 80
2 01/28/2025 17:42:05 -0.00, 61.63 -0.86, 57.73 444.23 80
3 01/29/2025 17:18:45 -0.00, 61.66 0.24, 62.72 121.68 80
4 01/31/2025 05:37:37 -0.00, 61.70 0.79, 58.17 403.04 80
5 02/01/2025 05:19:37 -0.00, 61.72 -0.32, 63.16 163.80 80
6 02/02/2025 17:38:37 0.00, 61.74 -0.71, 58.56 362.57 80
7 02/03/2025 17:15:18 0.01, 61.78 0.40, 63.56 203.06 80
8 02/05/2025 05:34:09 -0.00, 61.84 0.61, 59.00 323.21 80
9 02/06/2025 05:16:09 -0.00, 61.86 -0.45, 64.00 243.06 80
10 02/07/2025 17:35:09 0.00, 61.89 -0.56, 59.41 283.44 80
11 02/08/2025 17:11:50 0.00, 61.93 0.56, 64.40 281.50 80
